{"data":{"norad_id":53807,"epoch":"2026-05-24T09:32:37.217472Z","epoch_age_seconds":126956,"freshness":"FRESH","line1":"1 53807U 22111AL  26144.39765298  .00005232  00000+0  14847-3 0  9994","line2":"2 53807  53.2278 145.6287 0007388  97.1137 263.0708 15.37934253206544","mean_motion":15.37934253,"eccentricity":0.0007388,"inclination_deg":53.2278,"raan_deg":145.6287,"arg_perigee_deg":97.1137,"mean_anomaly_deg":263.0708,"bstar":0.00014847,"rev_number":20654,"period_min":93.632091046222,"perigee_km":447.17255040275,"apogee_km":457.26508415837,"semimajor_km":6830.3558172806,"source":"CELESTRAK","updated_at":"2026-05-25T13:37:58.405257Z"}}